Location: Newark
(46.1292°N, 1.0086°W)
Time: 09:51:42
(UTC+00:00)

Vanguard 3 - Pass Details

Date: 24 November 2019
Orbit: 508 x 3263 km, 33.3° (Epoch: 08 December)

Event Time Altitude Azimuth Distance (km) Brightness Sun altitude
Rises 19:26:13 0° 277° (W) 7,072 13.1 -31.1°
Reaches altitude 10° 19:33:59 10° 261° (W) 5,687 12.2 -32.4°
Maximum altitude 19:42:11 16° 231° (SW) 4,608 11.4 -33.8°
Drops below altitude 10° 19:48:54 10° 199° (SSW) 4,462 11.0 -35.0°
Sets 19:53:47 0° 179° (S) 4,921 11.1 -35.8°
